User: anonymous   Login
Location: Unspecified
(0.0000°N, 0.0000°E)
Time: 19:56:36
(UTC+00:00)
Language:

COSMOS 2390 - Orbit

View from above orbital plane
View from above orbital plane
View from above satellite
View from above satellite

Ground track
Ground track

The orbit data is extracted from the following two-line orbital elements,

1 27464U 02036A   18171.66659176 +.00000029 +00000-0 +13743-3 0  9990
2 27464 082.4829 009.7101 0024993 159.9465 200.2598 12.44566987724766
Epoch (UTC): 20 June 2018 15:59:53
Eccentricity: 0.0024993
inclination: 82.4829°
perigee height: 1467 km
apogee height: 1507 km
right ascension of ascending node: 9.7101°
argument of perigee: 159.9465°
revolutions per day: 12.44566987
mean anomaly at epoch: 200.2598°
orbit number at epoch: 72476

The dashed part of the orbit path shows where the satellite is in the earth's shadow,  

DLR